| time (UTC) | temp F | wind direction | speed knots | gust knots | rain 1hr in | rain 24hr in | rain mn in | humidity % | barometer mb |
| 20260505191206 | 76 | 239 | 4.3 | 13.9 | 0.00 | 0.00 | 0.00 | 36 | 1009.7 |
| 20260505190306 | 77 | 198 | 4.3 | 10.4 | 0.00 | 0.00 | 0.00 | 35 | 1009.8 |
| 20260505183606 | 76 | 214 | 4.3 | 11.3 | 0.00 | 0.00 | 0.00 | 37 | 1010.0 |
| 20260505182707 | 76 | 210 | 4.3 | 11.3 | 0.00 | 0.00 | 0.00 | 37 | 1010.1 |
| 20260505181806 | 76 | 199 | 5.2 | 11.3 | 0.00 | 0.00 | 0.00 | 38 | 1010.2 |
| 20260505180906 | 75 | 193 | 4.3 | 9.6 | 0.00 | 0.00 | 0.00 | 38 | 1010.1 |
| 20260505180006 | 74 | 195 | 3.5 | 9.6 | 0.00 | 0.00 | 0.00 | 40 | 1010.2 |
| 20260505175106 | 73 | 223 | 4.3 | 8.7 | 0.00 | 0.00 | 0.00 | 45 | 1010.2 |
| 20260505174206 | 72 | 258 | 5.2 | 11.3 | 0.00 | 0.00 | 0.00 | 47 | 1010.2 |
| 20260505173306 | 74 | 293 | 2.6 | 7.8 | 0.00 | 0.00 | 0.00 | 45 | 1010.2 |
| 20260505172406 | 73 | 265 | 4.3 | 7.8 | 0.00 | 0.00 | 0.00 | 48 | 1010.2 |
| 20260505171507 | 74 | 276 | 6.1 | 9.6 | 0.00 | 0.00 | 0.00 | 48 | 1010.3 |
| 20260505165706 | 73 | 303 | 4.3 | 9.6 | 0.00 | 0.00 | 0.00 | 49 | 1010.2 |
| 20260505164806 | 73 | 233 | 3.5 | 10.4 | 0.00 | 0.00 | 0.00 | 47 | 1010.2 |
| 20260505163906 | 74 | 228 | 3.5 | 8.7 | 0.00 | 0.00 | 0.00 | 47 | 1010.2 |
| 20260505163008 | 74 | 257 | 3.5 | 9.6 | 0.00 | 0.00 | 0.00 | 47 | 1010.3 |
| 20260505162106 | 70 | 232 | 1.7 | 7.0 | 0.00 | 0.00 | 0.00 | 52 | 1010.4 |
| 20260505161206 | 69 | 193 | 2.6 | 8.7 | 0.00 | 0.00 | 0.00 | 53 | 1010.4 |
| 20260505160307 | 69 | 200 | 2.6 | 8.7 | 0.00 | 0.00 | 0.00 | 53 | 1010.4 |
| 20260505152706 | 69 | 227 | 2.6 | 6.1 | 0.00 | 0.00 | 0.00 | 55 | 1010.1 |
| 20260505151807 | 69 | 213 | 2.6 | 6.1 | 0.00 | 0.00 | 0.00 | 56 | 1010.2 |
| 20260505150907 | 68 | 184 | 2.6 | 6.1 | 0.00 | 0.00 | 0.00 | 57 | 1010.0 |
| 20260505140606 | 66 | 189 | 2.6 | 7.8 | 0.00 | 0.00 | 0.00 | 61 | 1010.0 |
| 20260505094506 | 67 | 145 | 2.6 | 7.8 | 0.00 | 0.00 | 0.00 | 56 | 1010.1 |
| 20260505093605 | 68 | 154 | 3.5 | 8.7 | 0.00 | 0.00 | 0.00 | 55 | 1010.0 |
| 20260505092706 | 68 | 153 | 5.2 | 9.6 | 0.00 | 0.00 | 0.00 | 56 | 1010.1 |
| 20260505090906 | 68 | 150 | 4.3 | 9.6 | 0.00 | 0.00 | 0.00 | 56 | 1010.2 |
| 20260505085106 | 68 | 159 | 5.2 | 10.4 | 0.00 | 0.00 | 0.00 | 54 | 1010.2 |
| 20260505082406 | 69 | 172 | 6.1 | 13.9 | 0.00 | 0.00 | 0.00 | 48 | 1010.6 |
| 20260505081505 | 70 | 160 | 6.1 | 10.4 | 0.00 | 0.00 | 0.00 | 47 | 1010.6 |
| 20260505075705 | 70 | 178 | 6.1 | 19.1 | 0.00 | 0.00 | 0.00 | 43 | 1010.8 |
| 20260505074805 | 70 | 171 | 5.2 | 19.1 | 0.00 | 0.00 | 0.00 | 43 | 1010.7 |
| 20260505073905 | 70 | 175 | 5.2 | 13.9 | 0.00 | 0.00 | 0.00 | 43 | 1010.5 |
| 20260505073006 | 70 | 171 | 4.3 | 8.7 | 0.00 | 0.00 | 0.00 | 43 | 1010.4 |
| 20260505072105 | 70 | 169 | 4.3 | 12.2 | 0.00 | 0.00 | 0.00 | 42 | 1010.5 |
| 20260505071205 | 71 | 178 | 5.2 | 9.6 | 0.00 | 0.00 | 0.00 | 41 | 1010.6 |
| 20260505070306 | 71 | 176 | 5.2 | 10.4 | 0.00 | 0.00 | 0.00 | 40 | 1010.6 |
| 20260505065406 | 71 | 170 | 4.3 | 13.9 | 0.00 | 0.00 | 0.00 | 38 | 1010.6 |
| 20260505064505 | 71 | 171 | 5.2 | 13.9 | 0.00 | 0.00 | 0.00 | 36 | 1010.5 |
| 20260505063606 | 72 | 174 | 6.1 | 12.2 | 0.00 | 0.00 | 0.00 | 36 | 1010.4 |
| 20260505062705 | 72 | 168 | 5.2 | 12.2 | 0.00 | 0.00 | 0.00 | 34 | 1010.2 |
| 20260505060905 | 72 | 160 | 5.2 | 11.3 | 0.00 | 0.00 | 0.00 | 31 | 1010.0 |
| 20260505060006 | 73 | 159 | 5.2 | 11.3 | 0.00 | 0.00 | 0.00 | 32 | 1009.9 |
| 20260505055105 | 73 | 169 | 4.3 | 10.4 | 0.00 | 0.00 | 0.00 | 32 | 1009.8 |
| 20260505054205 | 73 | 164 | 3.5 | 8.7 | 0.00 | 0.00 | 0.00 | 32 | 1010.0 |
| 20260505053305 | 73 | 162 | 3.5 | 8.7 | 0.00 | 0.00 | 0.00 | 32 | 1010.2 |
| 20260505052405 | 74 | 164 | 3.5 | 8.7 | 0.00 | 0.00 | 0.00 | 32 | 1010.3 |
| 20260505051505 | 74 | 166 | 4.3 | 8.7 | 0.00 | 0.00 | 0.00 | 32 | 1010.5 |
| 20260505050605 | 74 | 175 | 4.3 | 9.6 | 0.00 | 0.00 | 0.00 | 32 | 1010.4 |
| 20260505041205 | 74 | 278 | 3.5 | 5.2 | 0.00 | 0.00 | 0.00 | 43 | 1010.1 |
| 20260505035405 | 74 | 264 | 1.7 | 6.1 | 0.00 | 0.00 | 0.00 | 43 | 1010.2 |
| 20260505033605 | 74 | 246 | 3.5 | 6.1 | 0.00 | 0.00 | 0.00 | 42 | 1009.8 |
| 20260505032706 | 75 | 273 | 3.5 | 6.1 | 0.00 | 0.00 | 0.00 | 42 | 1009.7 |
| 20260505030006 | 75 | 276 | 3.5 | 7.0 | 0.00 | 0.00 | 0.00 | 40 | 1009.3 |
| 20260505025105 | 75 | 274 | 5.2 | 7.8 | 0.00 | 0.00 | 0.00 | 40 | 1009.3 |
| 20260505024205 | 75 | 258 | 3.5 | 8.7 | 0.00 | 0.00 | 0.00 | 40 | 1009.4 |
| 20260505023305 | 76 | 270 | 4.3 | 6.1 | 0.00 | 0.00 | 0.00 | 39 | 1009.2 |
| 20260505022405 | 76 | 271 | 3.5 | 7.8 | 0.00 | 0.00 | 0.00 | 38 | 1009.3 |
| 20260505021506 | 76 | 250 | 3.5 | 6.1 | 0.00 | 0.00 | 0.00 | 37 | 1009.1 |
| 20260505020605 | 76 | 267 | 3.5 | 6.1 | 0.00 | 0.00 | 0.00 | 37 | 1009.2 |
| 20260505015705 | 77 | 272 | 3.5 | 6.1 | 0.00 | 0.00 | 0.00 | 37 | 1009.2 |
| 20260505014805 | 77 | 276 | 3.5 | 6.1 | 0.00 | 0.00 | 0.00 | 37 | 1009.1 |
| 20260505013906 | 77 | 304 | 2.6 | 5.2 | 0.00 | 0.00 | 0.00 | 37 | 1008.8 |
| 20260505013007 | 77 | 299 | 2.6 | 6.1 | 0.00 | 0.00 | 0.00 | 36 | 1008.7 |
| 20260505012105 | 77 | 274 | 2.6 | 7.0 | 0.00 | 0.00 | 0.00 | 36 | 1008.9 |
| 20260505011205 | 78 | 284 | 2.6 | 6.1 | 0.00 | 0.00 | 0.00 | 36 | 1008.8 |
| 20260505005405 | 78 | 203 | 2.6 | 6.1 | 0.00 | 0.00 | 0.00 | 36 | 1008.9 |
| 20260505003605 | 78 | 310 | 1.7 | 2.6 | 0.00 | 0.00 | 0.00 | 37 | 1009.0 |
| 20260505001806 | 78 | 299 | 1.7 | 7.0 | 0.00 | 0.00 | 0.00 | 37 | 1009.1 |
| 20260505000905 | 78 | 292 | 3.5 | 6.1 | 0.00 | 0.00 | 0.00 | 36 | 1009.1 |
| 20260504235105 | 78 | 249 | 3.5 | 7.8 | 0.00 | 0.00 | 0.00 | 37 | 1009.5 |
| 20260504234205 | 79 | 267 | 1.7 | 7.0 | 0.00 | 0.00 | 0.00 | 36 | 1009.5 |
| 20260504233305 | 78 | 233 | 1.7 | 5.2 | 0.00 | 0.00 | 0.00 | 37 | 1009.4 |
| 20260504231505 | 78 | 294 | 2.6 | 7.0 | 0.00 | 0.00 | 0.00 | 37 | 1009.2 |
| 20260504230605 | 78 | 350 | 2.6 | 4.3 | 0.00 | 0.00 | 0.00 | 37 | 1009.4 |
| 20260504225705 | 78 | 350 | 2.6 | 5.2 | 0.00 | 0.00 | 0.00 | 37 | 1009.4 |
| 20260504223905 | 78 | 354 | 4.3 | 8.7 | 0.00 | 0.00 | 0.00 | 37 | 1009.6 |
| 20260504223007 | 78 | 296 | 5.2 | 10.4 | 0.00 | 0.00 | 0.00 | 37 | 1009.9 |
| 20260504222105 | 79 | 302 | 6.1 | 10.4 | 0.00 | 0.00 | 0.00 | 36 | 1009.8 |
| 20260504221205 | 78 | 321 | 7.0 | 11.3 | 0.00 | 0.00 | 0.00 | 36 | 1010.0 |
| 20260504220304 | 79 | 311 | 5.2 | 12.2 | 0.00 | 0.00 | 0.00 | 36 | 1010.0 |
| 20260504215405 | 79 | 298 | 3.5 | 12.2 | 0.00 | 0.00 | 0.00 | 36 | 1009.9 |
| 20260504214505 | 78 | 259 | 3.5 | 6.1 | 0.00 | 0.00 | 0.00 | 37 | 1010.2 |
| 20260504212705 | 78 | 271 | 6.1 | 9.6 | 0.00 | 0.00 | 0.00 | 37 | 1010.6 |
| 20260504210006 | 78 | 307 | 7.0 | 12.2 | 0.00 | 0.00 | 0.00 | 38 | 1010.8 |
| 20260504205104 | 79 | 299 | 7.0 | 13.0 | 0.00 | 0.00 | 0.00 | 37 | 1010.9 |
| 20260504204204 | 80 | 271 | 6.1 | 13.0 | 0.00 | 0.00 | 0.00 | 36 | 1011.0 |
| 20260504203305 | 81 | 267 | 2.6 | 10.4 | 0.00 | 0.00 | 0.00 | 34 | 1010.8 |
| 20260504202404 | 80 | 194 | 3.5 | 7.8 | 0.00 | 0.00 | 0.00 | 36 | 1010.8 |
| 20260504201505 | 79 | 208 | 2.6 | 8.7 | 0.00 | 0.00 | 0.00 | 37 | 1010.7 |
| 20260504200604 | 80 | 195 | 4.3 | 6.1 | 0.00 | 0.00 | 0.00 | 36 | 1010.8 |
| 20260504195706 | 78 | 293 | 2.6 | 8.7 | 0.00 | 0.00 | 0.00 | 38 | 1010.9 |
| 20260504194804 | 78 | 306 | 3.5 | 7.0 | 0.00 | 0.00 | 0.00 | 39 | 1010.8 |
| 20260504193904 | 78 | 278 | 7.0 | 10.4 | 0.00 | 0.00 | 0.00 | 39 | 1010.8 |
| 20260504193005 | 78 | 296 | 7.0 | 11.3 | 0.00 | 0.00 | 0.00 | 39 | 1011.3 |
| 20260504192105 | 78 | 294 | 7.0 | 13.0 | 0.00 | 0.00 | 0.00 | 40 | 1011.3 |